Location: Clermont
(50.2608°N, 4.3172°E)
Time: 14:46:47
(UTC+00:00)

Tsikada Rocket - Pass Details

Date: 13 August 2020
Orbit: 957 x 1010 km, 82.9° (Epoch: 18 September)

Event Time Altitude Azimuth Distance (km) Brightness Sun altitude
Rises 22:17:15 0° 349° (N) 3,734 8.4 -22.5°
Reaches altitude 10° 22:19:48 10° 348° (NNW) 2,774 7.5 -22.6°
Maximum altitude 22:26:09 79° 264° (W) 1,011 4.0 -23.0°
Enters shadow 22:28:18 44° 186° (S) 1,330 4.3 -23.1°
